This demonstration page uses our WeatherBlox Daily Observations layout. Learn more.

Left ArrowRight Arrow

41.12389, -100.76542

Hourly Observations for July 1, 2015

Temp ( °F °C ) Dew Point ( °F °C ) Humidity (%) Winds ( mph kmh ) Pressure ( in mb ) Visibility ( mi km ) Precip ( " mm )
12:53 am 00:53 Mostly Clear 73 22.8 65 18.3 76 76 E 13 20 29.77 1008 10 16 0.00 0.03
1:53 am 01:53 Clear 70 21.1 66 18.9 87 87 E 9 15 29.76 1008 10 16 0.00 0.00
2:53 am 02:53 Clear 68 20 64 17.8 87 87 E 9 15 29.76 1008 10 16 0.00 0.00
3:53 am 03:53 Clear 66 18.9 62 16.7 87 87 NNE 5 7 29.78 1009 10 16 0.00 0.00
4:53 am 04:53 Clear 63 17.2 60 15.6 90 90 ENE 6 9 29.76 1008 8 13 0.00 0.00
5:53 am 05:53 Clear 62 16.7 59 15 90 90 NNW 8 13 29.78 1009 7 11 0.00 0.00
6:53 am 06:53 Sunny with Mist and Fog 62 16.7 60 15.6 93 93 NNW 12 19 29.81 1010 5 8 0.00 0.00
7:25 am 07:25 Partly Cloudy 64 18 61 16 88 88 NW 6 9 29.83 1010 7 11 0.00 0.00
7:33 am 07:33 Mostly Cloudy 64 17.8 62 16.7 93 93 N 5 7 29.83 1010 7 11 0.00 0.00
7:53 am 07:53 Cloudy with Mist and Fog 65 18.3 63 17.2 93 93 NNW 7 11 29.81 1010 6 10 0.00 0.00
8:04 am 08:04 Cloudy with Mist and Fog 66 19 64 18 94 94 N 5 7 29.80 1009 3 5 0.00 0.00
8:53 am 08:53 Partly Cloudy 71 21.7 65 18.3 81 81 N 7 11 29.84 1010 10 16 0.00 0.00
9:53 am 09:53 Sunny 80 26.7 65 18.3 60 60 N 10 17 29.83 1010 10 16 0.00 0.00
10:53 am 10:53 Sunny 85 29.4 65 18.3 51 51 N 8 13 29.83 1010 10 16 0.00 0.00
11:53 am 11:53 Sunny 91 32.8 64 17.8 41 41 VRB 7 11 29.82 1010 10 16 0.00 0.00
12:53 pm 12:53 Sunny 92 33.3 63 17.2 38 38 N 12 19 29.82 1010 10 16 0.00 0.00
1:53 pm 13:53 Sunny 93 33.9 61 16.1 34 34 N 13 20 29.83 1010 10 16 0.00 0.00
2:53 pm 14:53 Sunny 94 34.4 56 13.3 28 28 N 10 17 29.83 1010 10 16 0.00 0.00
3:53 pm 15:53 Sunny 94 34.4 55 12.8 27 27 N 16 26 29.83 1010 10 16 0.00 0.00
4:53 pm 16:53 Sunny 93 33.9 54 12.2 27 27 N 14 22 29.83 1010 10 16 0.00 0.00
5:53 pm 17:53 Sunny 92 33.3 55 12.8 29 29 NNE 17 28 29.82 1010 10 16 0.00 0.00
6:53 pm 18:53 Sunny 93 34 61 16 34 34 SSW 3 6 29.59 1002 10 16 0.00 0.00
7:53 pm 19:53 Sunny 85 29.4 56 13.3 37 37 NNE 7 11 29.84 1011 10 16 0.00 0.00
8:53 pm 20:53 Sunny 78 25.6 59 15 52 52 N 8 13 29.85 1011 10 16 0.00 0.00
9:53 pm 21:53 Clear 73 22.8 60 15.6 64 64 NE 8 13 29.87 1011 10 16 0.00 0.00
10:53 pm 22:53 Clear 73 22.8 60 15.6 64 64 NE 8 13 29.88 1012 10 16 0.00 0.00
11:53 pm 23:53 Clear 71 21.7 61 16.1 71 71 NE 9 15 29.87 1012 10 16 0.00 0.00

Powered by AerisWeather